Location: Unspecified
(51.0000°N, 12.0000°E)
Time: 02:23:59
(UTC+02:00)

OTV 5 (USA 277) - Pass Details

Date: 25 April 2019
Orbit: 310 x 325 km, 54.5° (Epoch: 08 May)

Event Time Altitude Azimuth Distance (km) Brightness Sun altitude
Rises 23:25:06 0° 270° (W) 2,035 ? -21.7°
Reaches altitude 10° 23:27:08 10° 278° (W) 1,207 ? -21.9°
Enters shadow 23:28:12 20° 290° (WNW) 803 ? -22.0°
